Terug naar catalogus

FREGAT DEB

LostMEO
NORAD 46238·DEBRIS·🇷🇺 Russia

Gelanceerd Jul 18, 2011 vanaf Baikonur Cosmodrome

Loading…

Volgende Passages (komende 24 uur)

TLE

VerouderdSource: Space-Track

Epoch: May 31, 2026, 20:20 UTC

1 46238U 11037JY  26151.84758052 -.00025704  00000-0 -20602+1 0  9999
2 46238  50.4277 326.7409 0246525  10.1941 350.3680 10.31130368220039

Volg FREGAT DEB in realtime met AllMySat

Download on the App Store